This demonstration page uses our WeatherBlox Daily Observations layout. Learn more.

Left ArrowRight Arrow

39.12711, -84.51439

Hourly Observations for September 6, 2022

Temp ( °F °C ) Dew Point ( °F °C ) Humidity (%) Winds ( mph kmh ) Pressure ( in mb ) Visibility ( mi km ) Precip ( " mm )
12:32 am 00:32 Cloudy 71 21.7 71 21.7 100 100 ESE 3 6 30.01 1016 10 16 0.00 0.00
12:53 am 00:53 Cloudy with Light Rain 72 22.2 71 21.7 97 97 Calm 30.01 1016 6 10 0.01 0.25
1:21 am 01:21 Cloudy with Light Rain 72 22.2 71 21.7 97 97 Calm 30.01 1016 5 8 0.01 0.13
1:33 am 01:33 Cloudy 72 22.2 71 21.7 97 97 Calm 30.01 1016 10 16 0.01 0.13
1:44 am 01:44 Cloudy 72 22.2 71 21.7 97 97 Calm 30.01 1016 10 16 0.01 0.13
1:53 am 01:53 Cloudy 72 22.2 71 21.7 97 97 E 3 6 30.00 1016 10 16 0.01 0.13
2:02 am 02:02 Cloudy with Nearby Thunderstorms 72 22.2 71 21.7 97 97 NNE 3 6 30.01 1016 10 16 0.00 0.00
2:44 am 02:44 Cloudy with Light Rain 71 21.7 71 21.7 100 100 NE 5 7 29.99 1016 3 5 0.07 1.78
2:53 am 02:53 Cloudy with Light Rain 71 21.7 70 21.1 96 96 ENE 3 6 29.99 1016 7 11 0.07 1.78
3:30 am 03:30 Mostly Cloudy with Light Rain 71 21.7 70 21.1 96 96 NE 6 9 29.99 1015 9 14 0.03 0.76
3:41 am 03:41 Cloudy 71 21.7 70 21.1 96 96 NNE 5 7 29.99 1015 10 16 0.03 0.76
3:53 am 03:53 Cloudy 71 21.7 70 21.1 96 96 NNE 5 7 29.99 1016 10 16 0.03 0.76
4:53 am 04:53 Cloudy 71 21.7 69 20.6 93 93 Calm 30.00 1016 10 16 0.00 0.00
5:53 am 05:53 Cloudy 71 21.7 70 21.1 96 96 ENE 5 7 30.00 1016 10 16 0.00 0.00
6:53 am 06:53 Cloudy 71 21.7 70 21.1 96 96 ENE 3 6 30.01 1016 8 13 0.00 0.00
7:53 am 07:53 Cloudy 71 21.7 69 20.6 93 93 NNE 6 9 30.04 1017 7 11 0.00 0.00
8:53 am 08:53 Cloudy with Mist and Fog 71 21.7 69 20.6 93 93 NE 7 11 30.05 1018 6 10 0.00 0.00
9:53 am 09:53 Cloudy with Mist and Fog 71 21.7 69 20.6 93 93 NE 7 11 30.06 1018 5 8 0.00 0.00
10:53 am 10:53 Cloudy with Light Rain 71 21.7 68 20 90 90 NE 7 11 30.08 1019 7 11 0.01 0.13
11:09 am 11:09 Cloudy with Nearby Thunderstorms 72 22.2 68 20 87 87 NNE 7 11 30.08 1019 7 11 0.01 0.13
11:35 am 11:35 Cloudy with Nearby Thunderstorms 69 20.6 68 20 96 96 NE 9 15 30.09 1019 3 4 0.07 1.78
11:46 am 11:46 Cloudy with Light Rain 69 20.6 68 20 96 96 NE 7 11 30.09 1019 3 5 0.08 2.03
11:53 am 11:53 Cloudy with Light Rain 69 20.6 68 20 96 96 NNE 5 7 30.10 1019 3 4 0.08 2.03
12:17 pm 12:17 Cloudy with Thunderstorms 69 20.6 68 20 96 96 E 5 7 30.09 1019 3 4 0.05 1.27
12:38 pm 12:38 Cloudy with Nearby Thunderstorms 69 20.6 68 20 96 96 NE 5 7 30.09 1019 3 4 0.08 2.03
12:53 pm 12:53 Cloudy with Rain 69 20.6 68 20 96 96 Calm 30.09 1019 6 10 0.10 2.54
1:53 pm 13:53 Mostly Cloudy 73 22.8 69 20.6 87 87 NE 8 13 30.07 1018 8 13 0.03 0.76
2:53 pm 14:53 Mostly Cloudy 75 23.9 68 20 79 79 NE 7 11 30.06 1018 8 13 0.00 0.00
3:00 pm 15:00 Mostly Cloudy 76 24.4 68 20 77 77 ENE 7 11 30.05 1018 10 16 0.00 0.00
3:53 pm 15:53 Partly Cloudy 78 25.6 67 19.4 69 69 N 3 6 30.04 1017 10 16 0.00 0.00
4:53 pm 16:53 Partly Cloudy 79 26.1 67 19.4 67 67 VRB 5 7 30.02 1017 10 16 0.00 0.00
5:53 pm 17:53 Mostly Cloudy 78 25.6 67 19.4 69 69 NE 5 7 30.01 1016 10 16 0.00 0.00
6:53 pm 18:53 Cloudy 76 24.4 67 19.4 74 74 NNE 6 9 30.03 1017 10 16 0.00 0.00
7:53 pm 19:53 Mostly Cloudy 75 23.9 66 18.9 74 74 NNE 7 11 30.04 1017 10 16 0.00 0.00
8:53 pm 20:53 Mostly Cloudy 73 22.8 66 18.9 79 79 NE 6 9 30.06 1018 10 16 0.00 0.00
9:53 pm 21:53 Mostly Cloudy 72 22.2 66 18.9 82 82 NNE 6 9 30.07 1018 10 16 0.00 0.00
10:53 pm 22:53 Clear 70 21.1 64 17.8 81 81 NNE 6 9 30.08 1019 10 16 0.00 0.00
11:53 pm 23:53 Clear with Mist and Fog 64 17.8 64 17.8 100 100 Calm 30.08 1019 6 10 0.00 0.00

Powered by AerisWeather